Погода в Голубинской

Россия / Волгоградская область     48°50′51″N   43°33′25″E
темп.,
°C
ветер,
м/с
пор.,
м/с
влажн.,
%
обл.,
%
осадки,
мм/ч
давл.,
гПа
погр.,
м
10 мая, пн
пн1000:00+7сз71188100 1.3 1014654
03:00+6зсз61087100 1.8 1015651
06:00+5сз71189100 0.6 1014571
09:00+6зсз71190100 0.8 1013685
12:00+6з71091100 0.8 1012618
15:00+7з6887100 0.8 1012717
18:00+7юз5791100 0.1 1012536
21:00+6ююв3692100 0.1 1013409
11 мая, вт
вт1100:00+6юв5893100 0.1 1013404
03:00+6юв589189 0.3 1014583
06:00+6юв61090100 0.3 1015901
09:00+7ююв81189100 0.5 10181144
12:00+8ююв81282100 0.2 10211221
15:00+12ююв4763100 0.3 1022810
18:00+13в5865100 0.0 1023429
21:00+10всв41173100 0.0 1022214
12 мая, ср
ср1200:00+10св51371100 0.0 1021290
03:00+9св51376100 0.0 1020287
06:00+9всв3880100 0.0 1020220
09:00+16вюв565681 0.0 1020786
12:00+19юв454499 0.0 10191629
15:00+20вюв45425 0.0 10191763
18:00+19в35555 0.0 1019236
21:00+15св126759 0.0 101811
13 мая, чт
чт1300:00+13ссв22700 0.0 101812
03:00+13с22740 0.0 101711
06:00+15с12730 0.0 101752
09:00+20св21613 0.0 1017506
12:00+24вюв234819 0.0 10171769
15:00+26вюв444447 0.0 10172033
18:00+24всв455717 0.0 1017211
21:00+19в226726 0.0 101714
14 мая, пт
пт1400:00+17в347112 0.0 101764
03:00+16в33765 0.0 101733
06:00+17в367692 0.0 1018160
09:00+22вюв584921 0.0 1017516
12:00+27юв68374 0.0 10171213
15:00+28юв710365 0.0 10161790
18:00+26ююв364917 0.0 1016148
21:00+21юв51455100 0.0 1016277